Home > Weather > Sarnia > Past weeks

Flag for Canada Past Weather in Sarnia, Ontario, Canada — Yesterday and Last 2 Weeks

Now
72 °F

Sunny.


Feels Like: 69 °F
Forecast: 62 / 78 °F
Wind: 8 mph from Northeast

Location: Sarnia Airport

Current Time: Aug 28, 2016 at 10:10:36 PM

Latest Report: Aug 28, 2016 at 9:00 PM


Visibility: 9 mi

Pressure: 30.19 "Hg

Humidity: 88%

Dew Point: 68 °F

Location of SarniaLocation

Past Weather in Sarnia — Graph

°F

Sarnia Temperature Yesterday

Maximum temperature yesterday: 82 °F (at 2:00 PM)
Minimum temperature yesterday: 64 °F (at 2:00 AM)
Average temperature yesterday: 71 °F

High & Low Weather Summary for the Past Weeks

 TemperatureHumidityPressure
High86 °F (Aug 19, 3:00 PM)100% (Aug 15, 5:01 AM)30.26 "Hg (Aug 15, 5:01 AM)
Low57 °F (Aug 22, 6:00 AM)44% (Aug 22, 6:00 PM)29.57 "Hg (Aug 21, 12:00 AM)
Average72 °F81%30.01 "Hg
* Reported Aug 13 9:00 PM — Aug 28 9:00 PM, Sarnia, Weather by CustomWeather, © 2016

Note: Actual official high and low records may vary slightly from our data, if they occured in-between our weather recording intervals... More about our weather records

Advertising

Sarnia Weather History for the Previous 24 Hours

Scroll right to see more
 ConditionsComfort  
Time TempWeatherWind HumidityBarometerVisibility
9:00 PM
Sun, Aug 28
72 °FSunny.8 mph88%30.19 "Hg9 mi
8:00 PM73 °FSunny.9 mph83%30.16 "Hg9 mi
7:00 PM75 °FSunny.9 mph89%30.15 "Hg9 mi
6:00 PM79 °FSunny.10 mph84%30.14 "Hg9 mi
5:00 PM81 °FSunny.12 mph70%30.15 "Hg9 mi
4:00 PM81 °FScattered clouds.6 mph70%30.16 "Hg9 mi
3:00 PM82 °FScattered clouds.7 mph66%30.16 "Hg9 mi
2:00 PM82 °FPassing clouds.9 mph66%30.16 "Hg9 mi
1:00 PM81 °FScattered clouds.7 mph70%30.18 "Hg9 mi
12:00 PM81 °FMostly cloudy.9 mph74%30.18 "Hg9 mi
11:50 AM79 °FPartly sunny.7 mph79%30.18 "Hg9 mi
11:00 AM79 °FPartly sunny.6 mph79%30.17 "Hg9 mi
10:00 AM75 °FPartly sunny.6 mph89%30.16 "Hg9 mi
9:00 AM73 °FFog.7 mph94%30.16 "Hg4 mi
8:00 AM72 °FFog.6 mph94%30.15 "Hg2 mi
7:51 AM72 °FFog.7 mph94%30.15 "Hg2 mi
7:00 AM70 °FFog.7 mph100%30.14 "Hg1 mi
6:00 AM70 °FFog.6 mph100%30.13 "Hg1 mi
5:00 AM70 °FFog.7 mph94%30.13 "Hg3 mi
4:00 AM68 °FFog.6 mph94%30.11 "Hg2 mi
3:04 AM68 °FFog.2 mph100%30.11 "Hg5 mi
2:58 AM68 °FFog.3 mph100%30.11 "Hg6 mi
2:00 AM68 °FClear.3 mph100%30.11 "Hg9 mi
1:00 AM70 °FPassing clouds.6 mph94%30.12 "Hg9 mi
12:00 AM70 °FMostly cloudy.5 mph94%30.12 "Hg9 mi
11:00 PM
Sat, Aug 27
70 °FPassing clouds.5 mph94%30.11 "Hg9 mi
10:00 PM68 °FClear.7 mph94%30.10 "Hg9 mi
Weather by CustomWeather, © 2016

See weather overviewHow to use our weather pages